Weather History for LFBD - February, 2014

Change the Weather History Date:

Sunday, February 23, 2014

  Actual Average Record
Temperature  
Mean Temperature 47 °F -  
Max Temperature 57 °F 56 °F 68 °F (2008)
Min Temperature 37 °F 40 °F 23 °F (2005)
Degree Days  
Heating Degree Days 18    
Moisture  
Dew Point 42 °F    
Average Humidity 84    
Maximum Humidity 100    
Minimum Humidity 51    
Precipitation  
Precipitation 0.00 in 0.10 in - ()
Sea Level Pressure  
Sea Level Pressure 30.04 in    
Wind  
Wind Speed 7 mph ()    
Max Wind Speed 17 mph    
Max Gust Speed -    
Visibility 4.4 miles    
Events Fog    
Averages and records for this station are not official NWS values.
T = Trace of Precipitation, MM = Missing Value Source: Averaged Metar Reports

Daily Weather History Graph

Daily Weather History Graph

Search for Another Location

Airport or City:

Trip Planner

Search our weather history database for the weather conditions in past years. The results will help you decide how hot, cold, wet, or windy it might be!

Date:

Astronomy

Feb. 23, 2014 Rise Set
Actual Time 7:51 AM CET 6:41 PM CET
Civil Twilight 7:21 AM CET 7:11 PM CET
Nautical Twilight 6:47 AM CET 7:45 PM CET
Astronomical Twilight 6:13 AM CET 8:19 PM CET
Moon 2:41 AM CET (2/23) 12:23 PM CET (2/23)
Length of Visible Light 11h 50m
Length of Day
10h 50m
Last Quarter, 42% of the Moon is Illuminated
Feb 23
Last Quarter
Mar 1
New
Mar 8
First Quarter
Mar 16
Full
Mar 24
Last Quarter

Hourly Weather History & Observations

Time (CET) Temp. Windchill Dew Point Humidity Pressure Visibility Wind Dir Wind Speed Gust Speed Precip Events Conditions
12:00 AM 42 °F - 41 °F 93% 30.22 in - South 5.8 mph - -   Mist
12:00 AM 41.0 °F 37.1 °F 41.0 °F 100% 30.21 in 6.2 mi South 5.8 mph - N/A   Unknown
12:30 AM 41.0 °F 38.0 °F 41.0 °F 100% 30.18 in 6.2 mi South 4.6 mph - N/A   Unknown
1:00 AM 41 °F - 40 °F 97% 30.22 in - Calm Calm - -   Mist
1:00 AM 41.0 °F - 41.0 °F 100% 30.18 in 5.0 mi Calm Calm - N/A Fog Patches of Fog
1:30 AM 41.0 °F - 39.2 °F 93% 30.18 in 4.3 mi SSE 2.3 mph - N/A Fog Patches of Fog
2:00 AM 40 °F - 39 °F 96% 30.21 in - SE 2.3 mph - -   Mist
2:00 AM 39.2 °F - 39.2 °F 100% 30.18 in 5.0 mi SE 2.3 mph - N/A   Unknown
2:30 AM 39.2 °F 37.0 °F 39.2 °F 100% 30.18 in 5.0 mi SE 3.5 mph - N/A   Unknown
3:00 AM 40 °F - 39 °F 96% 30.20 in - SE 3.5 mph - - Fog Patches of Fog
3:00 AM 39.2 °F 37.0 °F 39.2 °F 100% 30.18 in 3.1 mi SE 3.5 mph - N/A Fog Patches of Fog
3:30 AM 39.2 °F 37.0 °F 39.2 °F 100% 30.18 in 1.5 mi ESE 3.5 mph - N/A Fog Patches of Fog
4:00 AM 39 °F - 38 °F 97% 30.19 in 0 mi ESE 5.8 mph - - Fog Heavy Fog
4:00 AM 39.2 °F 35.0 °F 39.2 °F 100% 30.15 in 0.4 mi ESE 5.8 mph - N/A Fog Fog
4:30 AM 37.4 °F 32.8 °F 37.4 °F 100% 30.15 in 0.2 mi ESE 5.8 mph - N/A Fog Fog
5:00 AM 38 °F - 38 °F 99% 30.17 in 0 mi ESE 5.8 mph - - Fog Heavy Fog
5:00 AM 37.4 °F 32.8 °F 37.4 °F 100% 30.15 in 0.3 mi ESE 5.8 mph - N/A Fog Fog
5:30 AM 37.4 °F 32.8 °F 37.4 °F 100% 30.15 in 0.2 mi ESE 5.8 mph - N/A Fog Fog
6:00 AM 38 °F - 38 °F 100% 30.17 in - ESE 6.9 mph - - Fog Heavy Fog
6:00 AM 39.2 °F 34.2 °F 39.2 °F 100% 30.15 in 0.2 mi ESE 6.9 mph - N/A Fog Fog
6:30 AM 39.2 °F 34.2 °F 39.2 °F 100% 30.12 in 0.2 mi ESE 6.9 mph - N/A Fog Fog
7:00 AM 39 °F - 39 °F 100% 30.15 in - SE 6.9 mph - - Fog Heavy Fog
7:00 AM 39.2 °F 34.2 °F 39.2 °F 100% 30.12 in 0.3 mi SE 6.9 mph - N/A Fog Fog
7:30 AM 39.2 °F 34.2 °F 39.2 °F 100% 30.12 in 0.2 mi SE 6.9 mph - N/A Fog Fog
8:00 AM 40 °F - 40 °F 100% 30.14 in - SE 8.1 mph - - Fog Patches of Fog
8:00 AM 41.0 °F 35.8 °F 41.0 °F 100% 30.12 in 1.0 mi SE 8.1 mph - N/A   Mist
8:30 AM 41.0 °F 34.7 °F 41.0 °F 100% 30.12 in 1.1 mi SE 10.4 mph - N/A   Mist
9:00 AM 41 °F - 41 °F 98% 30.14 in - ESE 10.4 mph - -   Mist
9:00 AM 41.0 °F 34.7 °F 41.0 °F 100% 30.12 in 1.0 mi ESE 10.4 mph - N/A   Mist
9:30 AM 41.0 °F 34.3 °F 41.0 °F 100% 30.12 in 0.9 mi ESE 11.5 mph - N/A   Mist
10:00 AM 43 °F - 43 °F 99% 30.13 in - ESE 10.4 mph - -   Mist
10:00 AM 42.8 °F 37.0 °F 42.8 °F 100% 30.12 in 1.9 mi ESE 10.4 mph - N/A   Mist
10:30 AM 44.6 °F 39.2 °F 44.6 °F 100% 30.09 in 6.2 mi ESE 10.4 mph - N/A   Overcast
11:00 AM 46 °F - 46 °F 97% 30.12 in 11 mi ESE 11.5 mph - -   Clear
11:00 AM 46.4 °F 41.1 °F 46.4 °F 100% 30.09 in 6.2 mi ESE 11.5 mph - N/A   Overcast
11:30 AM 48.2 °F - 44.6 °F 87% 30.09 in 6.2 mi ESE 15.0 mph - N/A   Mostly Cloudy
12:00 PM 46 °F - 44 °F 88% 30.10 in - ESE 16.1 mph - -   Mostly Cloudy
12:00 PM 46.4 °F 39.8 °F 42.8 °F 87% 30.06 in 6.2 mi ESE 16.1 mph - N/A   Mostly Cloudy
12:30 PM 46.4 °F 39.8 °F 44.6 °F 93% 30.06 in 6.2 mi ESE 16.1 mph - N/A   Mostly Cloudy
1:00 PM 47 °F - 44 °F 86% 30.07 in - ESE 16.1 mph - -   Partly Cloudy
1:00 PM 48.2 °F - 44.6 °F 87% 30.06 in 6.2 mi ESE 16.1 mph - N/A   Overcast
1:30 PM 50.0 °F - 44.6 °F 82% 30.04 in 6.2 mi ESE 13.8 mph - N/A   Mostly Cloudy
2:00 PM 52 °F - 45 °F 69% 30.03 in - ESE 13.8 mph - -   Scattered Clouds
2:00 PM 51.8 °F - 44.6 °F 76% 30.01 in 6.2 mi ESE 13.8 mph - N/A   Partly Cloudy
2:30 PM 53.6 °F - 44.6 °F 72% 29.98 in 6.2 mi ESE 15.0 mph - N/A   Partly Cloudy
3:00 PM 55 °F - 45 °F 61% 29.99 in - ESE 15.0 mph - -   Clear
3:00 PM 55.4 °F - 44.6 °F 67% 29.98 in 6.2 mi ESE 15.0 mph - N/A   Unknown
3:30 PM 57.2 °F - 44.6 °F 63% 29.95 in 6.2 mi ESE 13.8 mph - N/A   Unknown
4:00 PM 57 °F - 44 °F 53% 29.95 in - ESE 12.7 mph - -   Partly Cloudy
4:00 PM 57.2 °F - 44.6 °F 63% 29.95 in 6.2 mi ESE 12.7 mph - N/A   Unknown
4:30 PM 57.2 °F - 42.8 °F 59% 29.92 in 6.2 mi ESE 12.7 mph - N/A   Unknown
5:00 PM 58 °F - 45 °F 51% 29.91 in - ESE 15.0 mph - -   Clear
5:00 PM 57.2 °F - 44.6 °F 63% 29.89 in 6.2 mi ESE 15.0 mph - N/A   Unknown
5:30 PM 57.2 °F - 42.8 °F 59% 29.89 in 6.2 mi ESE 15.0 mph - N/A   Unknown
6:00 PM 56 °F - 43 °F 52% 29.91 in - ESE 11.5 mph - -   Clear
6:00 PM 55.4 °F - 42.8 °F 63% 29.89 in 6.2 mi ESE 11.5 mph - N/A   Unknown
6:30 PM 55.4 °F - 42.8 °F 63% 29.89 in 6.2 mi ESE 10.4 mph - N/A   Partly Cloudy
7:00 PM 53 °F - 43 °F 58% 29.90 in - ESE 10.4 mph - -   Partly Cloudy
7:00 PM 53.6 °F - 42.8 °F 67% 29.89 in 6.2 mi ESE 10.4 mph - N/A   Partly Cloudy
7:30 PM 51.8 °F - 42.8 °F 71% 29.89 in 6.2 mi ESE 11.5 mph - N/A   Unknown
8:00 PM 51 °F - 43 °F 65% 29.89 in - ESE 8.1 mph - -   Clear
8:00 PM 51.8 °F - 42.8 °F 71% 29.89 in 6.2 mi ESE 8.1 mph - N/A   Unknown
8:30 PM 50.0 °F - 42.8 °F 76% 29.86 in 6.2 mi ESE 6.9 mph - N/A   Unknown
9:00 PM 49 °F - 42 °F 69% 29.88 in - SE 5.8 mph - -   Clear
9:00 PM 48.2 °F - 42.8 °F 82% 29.86 in 6.2 mi SE 5.8 mph - N/A   Unknown
9:30 PM 48.2 °F - 41.0 °F 76% 29.86 in 6.2 mi SE 3.5 mph - N/A   Unknown
10:00 PM 47 °F - 41 °F 74% 29.88 in - SE 5.8 mph - -   Partly Cloudy
10:00 PM 48.2 °F - 41.0 °F 76% 29.86 in 6.2 mi SE 5.8 mph - N/A   Unknown
10:30 PM 48.2 °F - 41.0 °F 76% 29.86 in 6.2 mi SSE 5.8 mph - N/A   Unknown
11:00 PM 51 °F - 40 °F 55% 29.88 in - SSE 15.0 mph - -   Clear
11:00 PM 51.8 °F - 39.2 °F 62% 29.86 in 6.2 mi SSE 15.0 mph - N/A   Unknown
11:30 PM 50.0 °F - 41.0 °F 71% 29.86 in 6.2 mi SE 17.3 mph - N/A   Unknown